World > North America > United States > Oregon

Lyons, Oregon Regional Weather

Lat: 44.78N, Lon: 122.61W
Wx Zone: ORZ010Web Search

Helpful Tip: Abbreviated, 7 Day, 14 Day Forecasts. There is a weather forecast for every taste.

Feedback


°F Click to change Lyons hourly weather to Imperial units.Click to change Lyons hourly weather to Metric units. °C
Lyons Weather Map
UTC Time: 5/15/2021, 20:03
Your Time:

Lyons, OR Regional Weather

Expires:202105152000;;164323
ASUS46 KPQR 151910
RWROR 

OREGON REGIONAL WEATHER ROUNDUP
NATIONAL WEATHER SERVICE PORTLAND OR
1200 PM PDT SAT MAY 15 2021

NOTE: "FAIR" INDICATES FEW OR NO CLOUDS BELOW 12,000 FEET WITH
NO SIGNIFICANT WEATHER AND/OR OBSTRUCTIONS TO VISIBILITY.


ORZ001>013-152000-
NORTHWEST OREGON

  
CITY           SKY/WX    TMP DP  RH WIND       PRES   REMARKS
ASTORIA        CLOUDY    55  48  77 NW9       30.14S                  
TILLAMOOK      SUNNY     59  48  67 NW8       30.14S                  
NEWPORT        MOSUNNY   54  46  76 N15G24    30.15S                  
FLORENCE       FAIR      56  46  70 NW15G24   30.11S                  
PORTLAND       MOSUNNY   64  46  52 VRB5      30.08F                  
VANCOUVER WA   SUNNY     65  45  48 NW8       30.07F                  
SCAPPOOSE      SUNNY     70  47  43 N9        30.06F                  
HILLSBORO      SUNNY     67  47  48 CALM      30.07F                  
AURORA         SUNNY     66  47  50 VRB6      30.08F                  
MCMINNVILLE    SUNNY     67  49  52 VRB5      30.07F                  
SALEM          SUNNY     66  44  45 NW6       30.07F                  
CORVALLIS      SUNNY    N/A N/A N/A CALM      30.08F                  
EUGENE         SUNNY     67  45  45 N10       30.07F                  
CRESWELL       SUNNY     66  48  52 N8        30.05F                  
$$


SKY/WX - Weather  TMP - Temperature  DP - Dew Point  RH - Relative Humidity
WIND - Wind Direction/Speed PRES - Barometric Pressure VSB - Visibility
WCI - Wind Chill Index E13G22 Wind - East Wind 13 mph/Gusts of 22 mph